Overview Statistics Trail Chart Weather Telemetry Raw packets
 

This is the latest recevied weather packets stored in our database for station/object KA1JKB. If no packets are shown the sender has not sent any weather packets the latest 10 day(s).

<< 21 22 23 24 25 26 27 >>
Time Temp. Humidity Pressure Rain* Wind** Luminosity Snow
1788298707 29.44° C 79% 1012.5 hPa 0 mm - 157 W/m² -
1788298402 29.44° C 82% 1012.6 hPa 0 mm - 354 W/m² -
1788298102 28.89° C 82% 1012.5 hPa 0 mm - 248 W/m² -
1788297797 28.89° C 82% 1012.5 hPa 0 mm - 267 W/m² -
1788297493 28.89° C 81% 1012.4 hPa 0 mm - 160 W/m² -
1788297189 29.44° C 79% 1012.3 hPa 0 mm - 260 W/m² -
1788296884 30° C 79% 1012.4 hPa 0 mm - 460 W/m² -
1788296580 29.44° C 80% 1012.4 hPa 0 mm - 508 W/m² -
1788296276 28.89° C 81% 1012.3 hPa 0 mm - 334 W/m² -
1788295976 28.33° C 82% 1012.7 hPa 0 mm - 144 W/m² -
1788295671 28.33° C 82% 1012.7 hPa 0 mm - 123 W/m² -
1788295367 28.33° C 82% 1012.5 hPa 0 mm - 106 W/m² -
1788295063 28.89° C 82% 1012.4 hPa 0 mm - 104 W/m² -
1788294762 28.89° C 82% 1012.5 hPa 0 mm - 104 W/m² -
1788294461 29.44° C 81% 1012.5 hPa 0 mm - 112 W/m² -
1788294157 29.44° C 81% 1012.5 hPa 0 mm - 95 W/m² -
1788293853 30° C 82% 1012.4 hPa 0 mm - 105 W/m² -
1788293552 30° C 81% 1012.3 hPa 0 mm - 165 W/m² -
1788293252 30° C 80% 1012.6 hPa 0 mm - 207 W/m² -
1788292947 30° C 80% 1012.5 hPa 0 mm - 220 W/m² -
1788292645 30.56° C 79% 1012.5 hPa 0 mm - 209 W/m² -
1788292340 31.11° C 77% 1012.7 hPa 0 mm - 207 W/m² -
1788292036 31.11° C 79% 1012.8 hPa 0 mm - 528 W/m² -
1788291731 31.11° C 79% 1012.7 hPa 0 mm - 447 W/m² -
1788291427 31.11° C 79% 1012.9 hPa 0 mm - 331 W/m² -

* Rain latest hour (hover to see other rain measurements)
** Current wind speed in m/s (hover to see current wind gust speed)